Wind_Speed
52 51 50 52 57 59 59 59 58 58 56 56 55 53 51 50 48 49 47 47 46 45 55 60 57 61 60 60 60 48 37 34 30 27 26 24 19 29 34 28 26 32 33 51 64 75 81 79 75 77 80 92 97 102
54 53 52 48 44 43 46 49 50 51 50 51 52 50 46 50 53 50 49 50 52 51 58 56 57 60 60 62 56 40 36 32 31 29 26 24 24 23 26 27 39 38 42 44 54 46 85 86 90 82 78 87 95 101
50 48 48 49 48 47 46 44 42 42 39 39 39 40 47 52 53 53 53 55 55 56 58 56 53 56 61 59 52 36 33 30 28 27 26 23 21 20 22 23 31 40 43 45 49 67 77 91 94 86 80 84 92 101
49 49 46 44 46 46 44 39 38 38 41 40 38 37 38 40 46 52 51 51 53 51 55 50 53 57 59 56 39 33 29 29 28 27 24 21 19 17 18 20 21 27 38 38 42 48 66 80 92 95 87 88 91 95
58 54 51 45 43 43 42 38 38 40 41 41 39 39 37 36 36 41 42 43 45 45 46 48 53 55 58 49 35 31 26 27 24 23 21 18 16 14 13 14 16 19 23 28 37 41 54 66 82 94 94 95 96 94
56 53 50 46 47 45 44 44 41 41 42 40 36 34 36 34 34 33 35 37 37 47 39 49 53 52 57 40 32 29 25 22 18 16 16 14 13 12 11 10 9 11 15 19 24 34 43 52 69 82 95 99 98 96
59 56 52 49 51 46 46 45 46 44 43 42 38 36 31 32 34 33 33 36 40 38 42 50 50 53 51 32 31 27 17 14 14 14 15 14 13 13 12 11 10 9 8 11 14 19 30 41 51 62 77 92 100 97
54 53 49 49 52 49 49 45 42 42 40 37 40 40 36 33 34 32 32 31 34 40 45 48 48 51 42 29 27 20 11 11 13 13 14 14 17 17 16 16 15 14 12 10 9 10 15 23 34 45 54 65 79 88
55 55 51 47 49 50 51 51 48 44 45 42 39 40 38 33 34 32 29 31 40 42 41 45 46 49 33 26 23 15 9 10 12 10 12 15 17 17 18 19 20 20 20 18 16 15 13 14 19 26 37 46 55 64
53 55 52 52 52 52 52 51 53 51 50 49 43 44 39 35 35 31 30 32 40 34 41 44 44 42 28 23 21 13 9 10 9 10 12 15 16 19 19 22 21 21 21 20 19 18 18 19 19 18 23 30 39 47
51 50 49 50 53 55 56 55 52 52 52 48 48 46 42 37 36 30 32 34 34 37 41 44 39 34 24 21 17 13 10 10 10 9 11 16 16 18 18 19 21 22 23 24 25 27 24 23 22 22 24 25 28 34
49 50 50 54 57 60 58 57 56 56 56 57 56 52 46 39 37 31 34 34 34 39 41 40 39 28 21 21 17 14 10 10 16 11 7 18 20 17 18 21 22 24 24 23 26 30 31 31 29 26 24 25 28 29
50 52 54 57 60 60 55 56 56 57 57 54 49 45 38 37 35 35 36 35 36 37 39 36 35 24 19 19 16 13 11 13 12 13 14 19 25 21 22 22 22 21 24 26 25 28 33 36 36 34 31 26 23 26
54 58 60 59 57 54 52 56 56 61 62 62 59 56 52 44 42 38 35 36 38 35 36 35 30 22 19 18 16 10 8 11 13 17 19 25 26 24 20 21 21 20 23 27 29 30 31 35 37 37 36 33 27 21
57 54 51 51 51 56 58 60 57 49 44 43 44 47 45 47 44 41 38 38 34 35 35 33 26 20 18 15 14 9 6 9 16 21 22 22 19 18 23 22 19 20 24 26 30 30 31 34 38 37 37 38 35 28
52 51 52 56 58 58 54 42 34 32 31 32 34 36 38 36 35 34 37 35 33 35 30 30 22 20 20 15 10 5 5 11 15 18 16 14 16 19 21 24 24 24 27 28 30 32 33 35 38 39 40 40 39 37
56 56 55 56 53 42 33 27 27 31 33 32 36 42 32 34 32 33 34 35 33 32 30 26 23 22 19 19 13 7 10 11 15 21 14 17 21 18 19 20 25 29 30 31 33 34 34 35 37 39 41 44 44 42
56 53 52 41 31 27 26 31 33 36 36 36 33 28 33 33 30 33 31 34 32 31 30 22 22 22 22 19 16 15 17 20 21 23 25 23 20 18 21 27 30 30 31 30 32 33 35 37 40 41 42 47 49 48
42 34 28 24 20 26 33 38 36 34 35 36 30 31 29 30 32 32 32 33 32 30 21 22 24 24 23 22 18 16 15 14 16 21 25 26 22 20 23 26 32 34 35 32 33 33 37 40 42 43 45 49 53 55
24 22 24 27 32 34 34 33 31 30 28 25 26 28 29 30 32 30 29 32 28 28 25 26 25 20 20 20 21 21 22 23 20 22 25 31 23 25 25 26 33 37 39 36 36 38 41 43 46 47 47 51 56 62
26 29 30 36 38 32 34 37 39 36 32 29 28 27 29 31 29 29 30 32 29 26 27 22 23 20 19 20 22 12 38 28 25 24 31 20 26 23 26 31 34 38 40 41 41 44 45 45 48 50 52 54 58 61
34 39 41 39 39 39 35 30 30 30 27 26 29 30 29 29 29 29 28 27 27 26 30 25 24 20 20 23 21 19 26 25 29 29 26 29 27 26 30 36 40 44 43 43 45 47 53 54 54 55 57 60 63 65
39 40 39 35 30 29 29 28 28 28 26 24 26 27 28 28 29 28 28 28 27 26 29 25 22 22 22 19 18 23 30 26 28 27 25 28 32 34 37 38 44 48 49 51 53 57 59 61 60 59 62 65 67 69
34 32 31 31 29 28 25 23 21 22 23 25 26 25 25 28 29 27 26 24 25 26 31 27 22 21 22 20 22 26 26 26 23 22 39 44 42 44 44 46 49 51 48 48 55 58 59 59 65 66 66 69 73 70
29 27 27 26 25 24 22 22 22 22 22 22 23 23 24 23 22 21 20 19 23 28 37 34 27 23 19 22 23 18 18 20 15 17 42 46 54 52 50 51 51 51 51 54 58 59 61 62 66 68 71 71 71 76
25 24 23 24 23 21 20 21 20 20 20 19 18 17 16 16 16 17 18 18 22 25 34 31 27 21 23 25 21 22 20 24 32 39 43 43 47 49 53 53 55 56 56 57 58 62 65 68 70 69 72 77 80 80
21 20 19 19 20 18 17 18 19 18 15 14 14 13 14 14 15 13 11 13 18 23 28 29 28 27 22 28 27 29 33 36 39 40 41 44 48 51 61 60 61 64 67 69 70 73 73 73 74 78 81 80 78 73
18 19 19 17 16 15 16 16 15 12 11 13 13 11 11 13 16 19 23 17 8 22 29 28 29 30 27 29 32 34 38 41 42 45 48 52 57 59 61 65 66 67 70 73 76 79 78 80 71 71 71 71 73 66
15 14 14 15 15 14 13 12 11 10 9 9 11 13 18 21 21 25 30 32 23 21 22 21 22 25 29 31 34 39 41 43 46 51 55 57 59 62 67 71 72 72 69 64 60 59 59 62 61 55 51 50 51 50
13 13 13 13 13 13 11 10 8 10 12 14 17 19 19 20 19 19 19 20 22 20 20 23 27 31 34 38 40 42 46 50 53 54 57 62 67 68 66 61 58 56 54 51 47 44 41 41 41 40 39 38 38 39
13 13 13 14 13 12 11 14 18 18 17 15 11 10 11 12 13 15 16 17 20 23 27 30 32 34 38 43 43 49 52 53 56 59 63 61 54 51 49 48 46 43 40 38 36 35 33 31 31 30 30 30 31 30
11 12 12 15 18 22 23 24 20 18 18 15 15 11 11 12 12 14 16 19 23 26 28 30 33 37 41 45 49 52 55 57 58 54 46 43 41 42 42 40 39 38 37 35 33 30 29 28 26 26 26 26 25 24
14 15 17 22 24 24 24 22 18 14 12 11 11 9 16 14 12 14 19 21 22 26 31 35 40 44 46 49 53 55 55 49 40 36 35 36 37 37 36 35 33 32 30 29 28 27 26 26 26 25 25 23 22 21
Wind_Direction
276 278 281 277 271 271 273 276 280 282 284 285 287 291 295 298 301 303 305 307 310 316 311 320 320 329 328 327 327 326 317 314 313 312 304 292 268 232 230 238 236 226 222 218 218 220 222 222 228 224 222 221 220 220
278 280 279 277 277 278 276 276 279 280 282 283 283 281 283 289 294 297 300 305 306 310 309 317 323 324 327 326 329 321 318 315 316 316 309 297 282 267 250 232 213 222 224 221 207 219 222 220 223 223 220 223 220 218
283 280 278 277 277 278 277 278 278 280 280 283 284 285 275 273 281 289 294 295 300 304 307 316 319 324 326 327 327 318 317 320 321 317 312 303 292 276 265 248 229 226 232 231 219 220 219 218 223 225 226 229 224 221
276 275 276 277 275 273 272 274 277 281 281 281 281 282 283 277 272 277 284 293 296 301 309 313 318 324 323 328 321 319 322 325 319 316 314 307 297 288 270 260 252 237 238 236 235 223 224 220 219 224 223 227 229 223
273 271 274 276 274 274 274 273 275 278 281 285 285 281 283 282 281 279 283 288 295 304 308 312 316 323 322 327 321 323 326 325 321 320 317 316 315 308 290 275 259 249 248 244 239 229 227 224 223 223 224 225 231 229
268 269 270 271 273 274 275 277 275 280 284 286 284 287 280 280 282 285 285 292 301 298 307 309 314 323 325 321 324 325 326 322 322 329 330 333 337 341 337 320 295 268 259 256 246 238 233 229 228 227 225 229 233 234
265 268 269 269 273 276 278 275 277 277 281 283 284 287 286 282 282 283 282 283 288 297 305 308 314 319 326 320 326 321 325 332 352 1 9 16 18 16 14 8 1 344 312 279 264 246 238 236 233 231 230 231 234 236
262 261 263 268 272 275 277 271 273 273 273 277 283 288 291 282 281 282 281 290 296 298 302 306 314 319 322 319 323 315 337 355 3 22 34 37 39 39 34 29 22 18 9 351 322 287 263 248 241 238 236 234 235 236
260 260 261 264 268 271 270 270 273 272 271 275 276 280 286 280 274 278 280 285 285 290 297 303 311 315 314 316 317 312 337 356 354 7 24 23 29 29 29 28 26 22 17 10 357 341 319 286 264 251 246 242 239 239
259 258 261 264 266 268 270 273 273 271 270 272 272 278 277 275 269 278 270 273 276 287 294 297 309 315 305 309 310 303 312 325 324 346 5 11 16 16 16 17 15 11 16 14 14 4 351 333 312 288 264 253 248 243
253 256 260 261 264 267 269 273 268 268 268 269 270 272 269 267 262 270 271 272 272 284 290 298 306 310 291 300 300 287 285 301 315 338 360 7 2 3 3 3 1 1 13 10 15 11 4 360 346 322 298 281 262 251
252 257 260 263 266 269 272 267 265 266 264 266 267 266 263 258 252 263 272 267 271 277 289 295 302 297 282 293 284 268 271 285 304 307 336 6 356 350 351 349 346 349 354 359 9 7 360 360 355 345 328 300 283 270
256 259 262 263 268 271 269 269 268 268 264 259 256 253 245 244 246 257 264 261 267 274 283 295 300 281 276 287 269 251 263 278 288 293 302 329 338 336 338 339 338 341 346 347 355 1 358 359 357 350 345 331 303 284
258 261 264 268 270 271 272 277 273 270 263 256 249 244 239 238 244 252 261 255 260 274 281 294 294 265 269 279 256 236 253 275 295 286 291 307 321 328 332 333 334 334 342 343 349 354 354 355 356 354 350 346 338 314
263 266 268 270 274 279 281 280 275 268 257 245 234 223 220 225 235 245 251 254 260 270 282 291 282 252 261 273 252 236 253 295 288 289 297 301 310 317 323 331 328 320 329 336 344 349 347 349 350 351 353 350 349 342
267 270 274 279 280 282 278 271 258 243 224 204 191 195 200 211 221 230 242 251 262 269 278 289 255 245 254 269 265 249 270 288 312 314 302 299 307 315 324 328 332 321 328 338 341 344 345 344 347 350 352 351 351 348
270 274 277 278 279 272 259 241 218 193 178 175 185 189 196 213 220 231 240 250 260 269 280 278 237 239 253 257 260 248 260 293 322 333 306 296 299 310 321 325 329 329 328 327 331 336 340 342 349 353 356 352 349 349
271 273 276 268 256 238 224 201 184 175 176 177 179 191 210 215 223 231 243 252 259 270 280 252 232 239 244 250 259 262 274 287 296 299 314 296 298 294 311 320 323 325 321 317 321 329 333 337 341 347 352 354 350 346
263 255 247 233 213 196 177 167 169 178 183 181 188 199 209 216 224 233 243 253 267 276 255 228 236 240 246 250 257 262 275 285 299 297 297 307 287 284 305 320 323 321 322 320 320 323 327 330 332 335 344 344 345 344
227 212 196 189 179 167 162 160 167 167 173 179 196 212 217 224 233 238 243 257 266 259 236 226 233 244 250 249 257 263 269 274 284 290 290 298 285 291 302 313 318 318 316 316 315 315 318 318 319 326 338 337 337 338
183 177 177 168 162 167 179 183 184 186 187 191 200 214 224 231 235 244 249 257 255 235 218 225 231 242 247 251 263 329 293 277 277 289 293 279 287 293 307 311 308 309 313 317 318 314 313 313 317 327 331 330 329 330
173 171 167 172 180 187 189 184 185 186 193 204 215 222 229 237 244 251 251 239 227 225 217 219 231 239 237 251 270 275 278 277 281 284 287 287 287 290 300 305 305 308 311 310 315 323 323 322 320 324 325 323 324 325
165 172 181 186 184 183 182 184 189 192 198 206 216 227 238 242 242 236 232 229 226 229 213 220 232 238 247 257 266 246 270 277 279 284 286 283 290 293 299 304 305 309 311 316 316 317 317 316 315 316 315 315 318 319
173 176 177 174 176 179 186 191 197 204 213 224 234 241 239 232 229 227 227 230 231 225 209 218 223 236 247 257 265 272 280 286 293 304 301 295 296 296 298 299 300 303 306 307 306 307 308 308 306 308 309 310 310 315
158 165 173 179 183 187 194 204 213 221 225 235 236 231 228 228 227 227 232 248 235 221 211 215 227 240 255 263 273 281 282 278 272 237 251 271 280 292 295 297 298 299 299 300 301 301 301 302 300 303 304 308 317 316
164 175 182 188 194 199 208 210 218 227 228 226 225 226 226 229 236 239 248 250 231 224 215 219 232 248 259 260 264 265 271 267 273 278 280 287 292 296 296 296 295 296 297 297 297 296 297 298 301 309 310 306 307 307
183 186 190 195 200 206 215 222 224 223 217 219 226 234 239 234 237 230 211 213 225 215 217 227 236 256 260 263 269 274 281 286 288 290 292 293 295 295 297 299 300 301 303 303 304 305 305 301 296 295 298 300 302 303
189 191 192 201 212 216 209 205 208 215 230 246 243 226 210 206 195 170 126 132 192 225 231 234 247 258 267 268 273 278 286 290 289 291 294 297 297 296 296 297 297 297 296 296 296 295 296 294 296 296 297 297 297 298
191 201 207 204 196 192 196 207 227 237 222 189 168 155 173 186 186 186 180 189 220 240 246 258 262 267 273 277 284 289 292 294 296 297 297 298 299 300 301 301 301 301 301 300 298 296 294 292 296 297 296 294 295 298
195 190 184 178 178 190 207 223 184 151 154 160 162 175 186 198 205 211 214 224 234 249 262 270 276 278 280 284 292 294 296 299 300 300 303 305 306 306 307 306 306 306 305 304 303 301 299 296 295 295 293 292 291 291
176 177 177 177 192 204 179 147 145 146 149 155 163 186 213 221 228 237 244 250 256 263 268 272 277 283 290 293 295 299 302 302 303 306 307 308 309 307 308 310 312 313 313 312 310 309 307 305 302 299 298 298 297 295
190 197 193 185 179 162 153 151 154 164 144 162 182 192 223 241 246 248 248 253 258 267 276 283 287 291 296 299 301 303 306 307 307 309 310 311 313 318 322 324 324 323 322 321 319 316 316 315 313 310 308 306 304 302
146 152 155 156 158 162 159 157 163 173 177 195 208 241 261 264 265 260 264 272 279 281 284 289 294 299 301 302 305 306 306 307 308 311 316 323 329 332 332 332 332 332 330 329 329 328 326 324 324 321 318 314 310 308
Height
10734 10733 10733 10733 10733 10734 10735 10735 10735 10734 10734 10732 10731 10729 10727 10725 10722 10719 10715 10712 10708 10704 10697 10691 10683 10675 10666 10656 10649 10641 10636 10631 10627 10625 10622 10619 10621 10619 10616 10621 10621 10615 10617 10623 10634 10648 10657 10663 10671 10678 10685 10696 10707 10720
10718 10718 10719 10719 10719 10719 10719 10719 10719 10719 10718 10718 10717 10717 10717 10714 10711 10709 10705 10702 10698 10694 10688 10682 10675 10666 10657 10648 10639 10632 10627 10621 10616 10614 10611 10609 10607 10606 10606 10609 10609 10607 10607 10614 10626 10631 10638 10647 10650 10658 10667 10675 10686 10703
10703 10704 10705 10706 10706 10707 10707 10707 10707 10706 10706 10706 10704 10703 10702 10702 10700 10698 10695 10692 10689 10685 10679 10674 10667 10658 10648 10640 10631 10624 10618 10613 10608 10604 10602 10600 10598 10597 10595 10596 10597 10599 10601 10602 10608 10611 10615 10625 10631 10644 10654 10657 10671 10678
10688 10690 10691 10692 10693 10693 10694 10694 10694 10694 10694 10693 10692 10692 10689 10688 10688 10686 10684 10681 10678 10675 10671 10664 10658 10649 10639 10630 10622 10616 10610 10605 10601 10597 10594 10592 10590 10589 10588 10587 10587 10590 10588 10593 10595 10602 10603 10609 10618 10621 10635 10641 10649 10661
10673 10675 10677 10679 10679 10681 10681 10682 10683 10683 10682 10681 10680 10680 10679 10677 10675 10674 10673 10670 10668 10666 10661 10656 10650 10641 10631 10622 10615 10609 10604 10600 10596 10592 10589 10586 10583 10581 10580 10579 10579 10581 10581 10583 10583 10587 10586 10595 10599 10608 10618 10624 10629 10640
10658 10660 10662 10664 10666 10667 10669 10670 10670 10671 10671 10670 10669 10668 10666 10666 10664 10663 10662 10660 10659 10658 10653 10647 10642 10632 10624 10615 10609 10604 10599 10596 10592 10588 10585 10582 10579 10576 10574 10572 10572 10572 10573 10573 10574 10576 10579 10582 10584 10592 10602 10607 10614 10626
10641 10644 10647 10649 10651 10653 10655 10656 10656 10657 10657 10658 10657 10657 10655 10654 10654 10653 10653 10652 10650 10648 10645 10640 10634 10625 10617 10610 10605 10601 10597 10593 10590 10587 10584 10581 10578 10576 10573 10571 10570 10568 10568 10567 10567 10566 10568 10570 10574 10578 10585 10591 10596 10606
10624 10628 10632 10634 10636 10638 10640 10642 10643 10643 10644 10645 10645 10646 10645 10644 10644 10644 10643 10643 10641 10639 10637 10633 10627 10619 10612 10607 10603 10599 10596 10593 10591 10588 10586 10583 10580 10578 10575 10573 10570 10568 10566 10564 10563 10562 10561 10562 10563 10565 10570 10574 10577 10586
10607 10611 10616 10619 10621 10623 10624 10626 10628 10630 10631 10632 10632 10633 10634 10634 10634 10632 10634 10634 10635 10633 10630 10625 10620 10613 10606 10603 10600 10596 10594 10592 10591 10589 10587 10584 10582 10580 10578 10575 10571 10568 10566 10563 10560 10558 10557 10556 10555 10556 10557 10558 10561 10566
10589 10594 10599 10603 10605 10606 10607 10609 10612 10613 10615 10618 10619 10620 10623 10623 10622 10625 10624 10626 10625 10624 10622 10618 10614 10607 10602 10599 10596 10593 10592 10591 10591 10589 10587 10585 10583 10581 10578 10575 10573 10570 10567 10563 10560 10557 10554 10551 10549 10548 10547 10546 10546 10549
10572 10578 10582 10585 10587 10589 10591 10593 10595 10597 10599 10602 10604 10607 10608 10611 10613 10614 10616 10616 10617 10617 10614 10611 10607 10601 10597 10595 10593 10591 10590 10589 10589 10589 10587 10585 10582 10580 10578 10575 10573 10570 10567 10563 10559 10556 10551 10548 10544 10540 10537 10535 10534 10534
10557 10561 10565 10568 10570 10571 10573 10575 10577 10579 10581 10585 10587 10590 10594 10598 10602 10604 10605 10606 10608 10608 10607 10603 10600 10596 10593 10590 10588 10587 10587 10586 10586 10586 10584 10583 10581 10578 10576 10573 10571 10568 10564 10560 10557 10553 10548 10543 10539 10535 10531 10526 10522 10521
10540 10544 10548 10550 10551 10552 10553 10555 10556 10558 10559 10562 10568 10573 10579 10585 10590 10592 10594 10597 10599 10600 10598 10596 10593 10589 10587 10586 10585 10584 10583 10583 10583 10583 10581 10579 10578 10575 10573 10571 10568 10565 10561 10558 10553 10549 10544 10539 10534 10529 10524 10519 10515 10511
10523 10526 10529 10532 10533 10532 10532 10532 10532 10531 10532 10535 10543 10552 10562 10572 10576 10581 10586 10589 10591 10591 10590 10588 10585 10583 10583 10581 10580 10579 10579 10579 10580 10579 10578 10576 10574 10572 10570 10568 10565 10562 10558 10554 10550 10545 10541 10537 10531 10525 10519 10513 10508 10504
10506 10509 10512 10513 10513 10512 10509 10508 10506 10504 10504 10508 10518 10531 10544 10555 10565 10572 10577 10579 10581 10581 10581 10579 10577 10577 10577 10576 10576 10575 10575 10576 10576 10575 10574 10572 10570 10568 10566 10564 10561 10558 10555 10551 10547 10542 10538 10533 10527 10522 10517 10508 10503 10498
10488 10492 10494 10495 10493 10491 10489 10487 10488 10489 10492 10500 10510 10523 10535 10546 10556 10563 10566 10569 10572 10573 10572 10571 10570 10572 10572 10572 10572 10571 10571 10571 10571 10570 10567 10566 10565 10564 10562 10559 10557 10554 10550 10546 10542 10538 10533 10529 10523 10517 10511 10506 10500 10493
10471 10475 10477 10474 10473 10473 10474 10476 10479 10484 10490 10499 10510 10520 10531 10542 10550 10555 10558 10559 10562 10562 10563 10563 10564 10565 10567 10568 10567 10566 10566 10566 10565 10564 10563 10562 10561 10559 10557 10554 10552 10549 10545 10542 10538 10534 10529 10525 10520 10513 10508 10502 10495 10490
10454 10456 10456 10456 10459 10461 10465 10470 10476 10483 10491 10500 10509 10518 10528 10536 10542 10547 10551 10549 10551 10555 10555 10555 10558 10560 10561 10562 10562 10562 10562 10562 10561 10561 10559 10557 10556 10554 10552 10550 10547 10545 10541 10538 10534 10529 10524 10519 10514 10508 10502 10497 10491 10484
10436 10439 10442 10446 10450 10456 10462 10469 10476 10484 10493 10500 10508 10516 10523 10530 10535 10541 10541 10544 10547 10547 10548 10550 10551 10552 10554 10555 10557 10557 10557 10557 10556 10555 10554 10552 10550 10549 10547 10545 10541 10538 10534 10530 10527 10523 10517 10512 10507 10502 10494 10488 10484 10479
10425 10431 10437 10443 10450 10456 10464 10471 10478 10486 10493 10499 10506 10513 10520 10524 10530 10534 10536 10538 10538 10539 10540 10542 10544 10547 10549 10551 10553 10553 10552 10552 10552 10551 10549 10545 10544 10542 10540 10538 10535 10532 10527 10523 10519 10514 10510 10504 10500 10494 10486 10481 10475 10465
10421 10428 10436 10444 10451 10458 10465 10470 10476 10483 10490 10497 10503 10509 10514 10518 10522 10526 10527 10529 10530 10531 10533 10537 10540 10542 10545 10548 10550 10548 10548 10550 10547 10545 10543 10542 10539 10536 10534 10530 10527 10524 10518 10513 10509 10504 10500 10494 10488 10481 10475 10472 10468 10462
10421 10430 10438 10445 10451 10457 10464 10471 10477 10482 10489 10495 10500 10504 10508 10512 10514 10515 10517 10519 10521 10524 10527 10531 10534 10536 10539 10542 10544 10548 10549 10546 10541 10538 10536 10533 10533 10531 10526 10522 10518 10513 10508 10503 10496 10491 10485 10481 10475 10470 10465 10460 10454 10450
10425 10433 10439 10446 10453 10459 10465 10470 10476 10482 10487 10491 10496 10499 10502 10504 10505 10506 10508 10510 10514 10517 10522 10526 10529 10530 10534 10538 10541 10546 10540 10534 10531 10529 10527 10526 10525 10520 10516 10514 10509 10501 10494 10486 10483 10477 10473 10467 10462 10459 10453 10447 10443 10437
10428 10435 10442 10448 10454 10461 10466 10471 10476 10481 10485 10488 10491 10493 10494 10496 10498 10501 10504 10507 10510 10513 10517 10521 10524 10526 10529 10531 10530 10527 10527 10526 10526 10522 10519 10517 10517 10513 10507 10503 10498 10493 10487 10481 10476 10469 10464 10459 10449 10443 10443 10436 10429 10424
10433 10439 10445 10451 10456 10462 10466 10471 10474 10477 10480 10482 10485 10486 10489 10492 10495 10499 10502 10505 10506 10509 10512 10516 10519 10522 10524 10523 10522 10521 10519 10518 10519 10519 10514 10510 10507 10503 10496 10490 10486 10481 10476 10471 10464 10457 10451 10447 10440 10434 10426 10418 10411 10406
10436 10442 10448 10453 10458 10462 10466 10469 10471 10473 10475 10477 10479 10482 10486 10490 10494 10497 10500 10501 10501 10505 10508 10511 10515 10518 10518 10516 10515 10512 10512 10510 10507 10508 10506 10502 10495 10488 10482 10478 10472 10466 10462 10456 10451 10445 10439 10432 10421 10412 10406 10399 10396 10391
10439 10444 10449 10453 10457 10461 10464 10466 10467 10469 10472 10474 10477 10479 10483 10487 10489 10492 10496 10499 10500 10499 10501 10505 10509 10512 10512 10510 10508 10506 10504 10502 10499 10496 10491 10486 10482 10476 10465 10459 10453 10445 10437 10429 10426 10418 10412 10407 10405 10399 10391 10383 10377 10371
10440 10444 10448 10452 10455 10458 10460 10463 10465 10467 10470 10472 10474 10477 10480 10482 10485 10491 10494 10495 10495 10490 10498 10501 10504 10504 10505 10504 10502 10499 10496 10492 10488 10485 10481 10476 10468 10460 10453 10445 10436 10429 10422 10416 10409 10401 10396 10382 10380 10377 10371 10368 10357 10352
10440 10444 10447 10450 10453 10456 10458 10460 10462 10464 10467 10469 10473 10479 10481 10482 10486 10488 10490 10491 10492 10493 10495 10497 10499 10498 10496 10494 10492 10489 10485 10481 10476 10470 10464 10457 10451 10441 10431 10423 10415 10405 10396 10389 10383 10378 10374 10368 10359 10355 10351 10346 10340 10337
10439 10442 10446 10449 10452 10454 10456 10458 10461 10464 10466 10469 10473 10476 10480 10482 10485 10488 10490 10491 10492 10493 10493 10493 10492 10489 10486 10483 10481 10477 10471 10465 10460 10454 10447 10439 10430 10421 10411 10402 10393 10385 10377 10370 10364 10359 10356 10351 10345 10341 10337 10334 10331 10327
10439 10442 10445 10448 10450 10452 10456 10459 10462 10465 10467 10472 10475 10477 10480 10483 10484 10485 10487 10488 10488 10488 10486 10485 10483 10481 10475 10468 10468 10463 10457 10451 10444 10437 10430 10422 10414 10405 10397 10388 10380 10371 10365 10357 10351 10346 10341 10337 10333 10329 10326 10322 10319 10316
10439 10442 10444 10447 10449 10453 10457 10461 10464 10465 10467 10470 10471 10475 10477 10478 10480 10480 10481 10481 10480 10480 10478 10476 10472 10469 10467 10461 10454 10448 10441 10435 10429 10422 10415 10409 10403 10395 10385 10377 10369 10361 10354 10348 10342 10337 10332 10328 10324 10320 10316 10313 10309 10307
10441 10443 10446 10449 10452 10456 10460 10464 10467 10469 10471 10472 10473 10475 10473 10474 10476 10476 10476 10475 10474 10472 10470 10466 10462 10458 10453 10448 10442 10435 10428 10422 10417 10412 10407 10400 10392 10385 10378 10371 10364 10357 10350 10344 10338 10333 10327 10322 10318 10313 10309 10306 10303 10300